Weather in Kamenushka

Russia / Novosibirsk Oblast     54˚50′37″N   83˚13′52″E
temp.,
°C
wind,
m/s
gust,
m/s
humid.,
%
clouds,
%
prec.,
mm/h
press.,
hPa
HPBL,
m
16 january, sat
sat1601:00−23˚sse2595100 0.0 1046149
04:00−22˚sse3794100 0.0 1044212
07:00−21˚sse4893100 0.0 1041242
10:00−19˚sse51090100 0.0 1038309
13:00−17˚s51085100 0.0 1034327
16:00−16˚s5108499 0.0 1030392
19:00−15˚sse5108799 0.0 1027330
22:00−13˚sse51182100 0.0 1023305
17 january, sun
sun1701:00−14˚sse41181100 0.0 1020263
04:00−13˚sse51278100 0.0 1016292
07:00−13˚s51473100 0.0 1013373
10:00−12˚s51582100 0.0 1010442
13:00−8˚sw81584100 0.0 1010779
16:00−7˚sw81491100 0.1 1011776
19:00−9˚sw71591100 0.3 1013600
22:00−11˚sw61493100 0.1 1014418
18 january, mon
mon1801:00−11˚ssw5149299 0.1 1013441
04:00−10˚sw71683100 0.0 1011655
07:00−9˚wsw71686100 0.0 1010994
10:00−10˚wsw71391100 0.3 1012814
13:00−11˚wsw71292100 0.3 1014636
16:00−12˚wsw6139099 0.0 1015611
19:00−16˚wsw5119598 0.0 1017307
22:00−18˚wsw479999 0.0 1019179
19 january, tue
tue1901:00−21˚wsw3310099 0.1 102151
04:00−24˚sw2210074 0.0 102320
07:00−24˚s229985 0.0 102320
10:00−24˚sse239889 0.0 102226
13:00−19˚s249394 0.0 1021208
16:00−18˚ssw249489 0.0 1020197
19:00−21˚sw229791 0.0 102120
22:00−21˚wsw2296100 0.0 102132
20 january, wed
wed2001:00−21˚w1295100 0.0 102222
04:00−23˚n1197100 0.0 102220
07:00−21˚ne1295100 0.0 102224
10:00−20˚ne2494100 0.0 1021128
13:00−18˚ene3591100 0.0 1020228
16:00−17˚ene4693100 0.1 1017238
19:00−17˚ene3696100 0.9 1016164
22:00−17˚ne1197100 0.4 101523